TimePST,TemperatureF,Dew PointF,Humidity,Sea Level PressureIn,VisibilityMPH,Wind Direction,Wind SpeedMPH,Gust SpeedMPH,PrecipitationIn,Events,Conditions,WindDirDegrees,DateUTC
12:53 AM,37.0,35.1,93,30.43,6.0,ENE,5.8,-,N/A,,Overcast,70,2013-01-01 08:53:00
1:53 AM,37.0,36.0,96,30.43,6.0,East,4.6,-,N/A,,Overcast,80,2013-01-01 09:53:00
2:53 AM,36.0,34.0,93,30.42,6.0,East,5.8,-,N/A,,Mostly Cloudy,80,2013-01-01 10:53:00
3:00 AM,35.6,33.8,93,30.41,6.0,East,5.8,-,N/A,,Scattered Clouds,80,2013-01-01 11:00:00
3:53 AM,35.1,34.0,96,30.41,6.0,East,4.6,-,N/A,,Partly Cloudy,80,2013-01-01 11:53:00
4:53 AM,33.1,32.0,96,30.42,6.0,ESE,3.5,-,N/A,,Clear,120,2013-01-01 12:53:00
5:10 AM,30.2,30.2,100,30.41,5.0,Calm,Calm,-,N/A,,Partly Cloudy,0,2013-01-01 13:10:00
5:53 AM,32.0,32.0,100,30.42,6.0,Calm,Calm,-,N/A,,Clear,0,2013-01-01 13:53:00
6:01 AM,33.8,33.8,100,30.41,6.0,Calm,Calm,-,N/A,,Partly Cloudy,0,2013-01-01 14:01:00
6:40 AM,30.2,30.2,100,30.43,2.5,Calm,Calm,-,N/A,,Clear,0,2013-01-01 14:40:00
6:48 AM,30.2,30.2,100,30.43,5.0,Calm,Calm,-,N/A,,Clear,0,2013-01-01 14:48:00
6:53 AM,30.0,30.0,100,30.44,5.0,Calm,Calm,-,N/A,,Clear,0,2013-01-01 14:53:00
7:53 AM,30.9,30.0,96,30.43,6.0,ESE,3.5,-,N/A,,Clear,120,2013-01-01 15:53:00
8:53 AM,30.9,30.0,96,30.45,3.0,Calm,Calm,-,N/A,,Clear,0,2013-01-01 16:53:00
9:01 AM,30.2,30.2,100,30.44,2.0,Calm,Calm,-,N/A,,Clear,0,2013-01-01 17:01:00
9:26 AM,33.8,33.8,100,30.45,3.0,Calm,Calm,-,N/A,,Clear,0,2013-01-01 17:26:00
9:53 AM,35.1,34.0,96,30.45,5.0,Calm,Calm,-,N/A,,Clear,0,2013-01-01 17:53:00
10:53 AM,39.0,36.0,89,30.44,5.0,Calm,Calm,-,N/A,,Clear,0,2013-01-01 18:53:00
11:53 AM,42.1,37.9,85,30.41,5.0,East,5.8,-,N/A,,Clear,100,2013-01-01 19:53:00
12:53 PM,43.0,37.0,80,30.40,5.0,East,5.8,-,N/A,,Haze,100,2013-01-01 20:53:00
1:53 PM,43.0,37.9,82,30.38,5.0,ENE,6.9,-,N/A,,Haze,60,2013-01-01 21:53:00
2:53 PM,42.1,37.0,82,30.38,5.0,NE,5.8,-,N/A,,Haze,50,2013-01-01 22:53:00
3:53 PM,39.9,36.0,86,30.37,5.0,NE,5.8,-,N/A,,Clear,50,2013-01-01 23:53:00
4:53 PM,37.9,35.1,89,30.35,6.0,ENE,8.1,-,N/A,,Clear,70,2013-01-02 00:53:00
5:53 PM,37.0,35.1,93,30.32,6.0,NE,5.8,-,N/A,,Clear,50,2013-01-02 01:53:00
6:53 PM,37.0,34.0,89,30.32,6.0,East,3.5,-,N/A,,Clear,80,2013-01-02 02:53:00
7:53 PM,36.0,33.1,89,30.30,6.0,ENE,4.6,-,N/A,,Clear,60,2013-01-02 03:53:00
8:53 PM,35.1,33.1,92,30.30,6.0,ENE,4.6,-,N/A,,Clear,60,2013-01-02 04:53:00
9:53 PM,37.0,34.0,89,30.28,6.0,ENE,3.5,-,N/A,,Clear,70,2013-01-02 05:53:00
10:53 PM,37.0,34.0,89,30.28,6.0,Variable,3.5,-,N/A,,Clear,0,2013-01-02 06:53:00
11:53 PM,36.0,34.0,93,30.28,6.0,Calm,Calm,-,N/A,,Clear,0,2013-01-02 07:53:00